CW2969 Weather Reports


Display with metric or nautical units.
time (UTC)temp
F
wind
direction
speed
MPH
gust
MPH
rain 1hr
in
rain 24hr
in
rain mn
in
humidity
%
barometer
mb
20190422162929 75 165 1.0 6.0 0.00 0.00 0.00 71 1016.8
20190422161928 75 238 2.0 2.0 0.00 0.00 0.00 70 1016.8
20190422160928 75 196 5.0 5.0 0.00 0.00 0.00 68 1016.6
20190422155927 75 181 2.0 8.0 0.00 0.00 0.00 70 1016.7
20190422154928 75 230 5.0 9.0 0.00 0.00 0.00 72 1016.7
20190422153927 75 195 6.0 10.0 0.00 0.00 0.00 71 1016.6
20190422152927 73 182 5.0 12.0 0.00 0.00 0.00 74 1016.7
20190422151927 73 194 1.0 5.0 0.00 0.00 0.00 76 1016.7
20190422150926 73 156 3.0 7.0 0.00 0.00 0.00 76 1016.8
20190422145926 72 193 6.0 12.0 0.00 0.00 0.00 81 1016.7
20190422144926 71 218 0.0 2.0 0.00 0.00 0.00 83 1016.6
20190422143925 71 143 9.0 9.0 0.00 0.00 0.00 82 1016.5
20190422142925 71 167 6.0 6.0 0.00 0.00 0.00 83 1016.4
20190422141925 71 198 1.0 7.0 0.00 0.00 0.00 84 1016.5
20190422140925 70 163 2.0 5.0 0.00 0.00 0.00 86 1016.4
20190422135925 69 175 0.0 5.0 0.00 0.00 0.00 86 1016.4
20190422134924 69 194 0.0 6.0 0.00 0.00 0.00 87 1016.4
20190422133924 69 166 0.0 2.0 0.00 0.00 0.00 88 1016.2
20190422132924 68 139 1.0 4.0 0.00 0.00 0.00 90 1016.1
20190422131924 68 162 0.0 2.0 0.00 0.00 0.00 91 1016.1
20190422130923 67 149 2.0 6.0 0.00 0.00 0.00 91 1016.1
20190422125923 67 155 3.0 3.0 0.00 0.00 0.00 92 1016.0
20190422124925 67 181 3.0 3.0 0.00 0.00 0.00 92 1015.9
20190422123922 67 182 0.0 3.0 0.00 0.00 0.00 92 1015.5
20190422122922 67 143 4.0 5.0 0.00 0.00 0.00 92 1015.4
20190422121922 67 184 1.0 3.0 0.00 0.00 0.00 91 1015.3
20190422120922 67 202 2.0 7.0 0.00 0.00 0.00 91 1015.2
20190422115922 67 187 0.0 2.0 0.00 0.00 0.00 91 1015.1
20190422114921 67 194 0.0 3.0 0.00 0.00 0.00 91 1015.2
20190422113921 67 203 1.0 5.0 0.00 0.00 0.00 91 1015.1
20190422112920 67 144 0.0 5.0 0.00 0.00 0.00 91 1015.1
20190422111920 67 153 0.0 0.0 0.00 0.00 0.00 91 1014.9
20190422110920 67 210 3.0 6.0 0.00 0.00 0.00 91 1014.8
20190422105920 67 175 2.0 5.0 0.00 0.00 0.00 91 1015.0
20190422104919 67 173 1.0 2.0 0.00 0.00 0.00 91 1015.1
20190422103919 67 162 0.0 2.0 0.00 0.00 0.00 91 1015.1
20190422102919 66 148 1.0 2.0 0.00 0.00 0.00 91 1015.1
20190422101918 66 163 4.0 4.0 0.00 0.00 0.00 91 1015.4
20190422100919 67 234 0.0 2.0 0.00 0.00 0.00 90 1015.1
20190422095918 67 263 1.0 4.0 0.00 0.00 0.00 90 1015.0
20190422094918 67 203 3.0 6.0 0.00 0.00 0.00 90 1014.9
20190422093918 67 153 5.0 5.0 0.00 0.00 0.00 89 1015.0
20190422092917 67 174 5.0 5.0 0.00 0.00 0.00 89 1014.9
20190422090917 67 173 5.0 5.0 0.00 0.00 0.00 89 1015.0
20190422085916 67 151 1.0 7.0 0.00 0.00 0.00 89 1015.0
20190422084916 67 174 2.0 4.0 0.00 0.00 0.00 89 1015.0
20190422083916 68 188 3.0 5.0 0.00 0.00 0.00 89 1014.9
20190422082916 68 228 2.0 4.0 0.00 0.00 0.00 88 1015.1
20190422081916 68 190 2.0 5.0 0.00 0.00 0.00 88 1015.2
20190422080917 68 125 0.0 2.0 0.00 0.00 0.00 88 1015.3
20190422075915 68 231 3.0 5.0 0.00 0.00 0.00 88 1015.3
20190422074914 68 136 1.0 4.0 0.00 0.00 0.00 88 1015.1
20190422073914 68 107 2.0 3.0 0.00 0.00 0.00 87 1015.3
20190422072914 68 144 3.0 4.0 0.00 0.00 0.00 87 1015.4
20190422071914 68 146 2.0 5.0 0.00 0.00 0.00 86 1015.6
20190422070913 68 207 1.0 2.0 0.00 0.00 0.00 86 1015.8
20190422065913 68 110 6.0 6.0 0.00 0.00 0.00 86 1015.7
20190422064913 68 223 4.0 5.0 0.00 0.00 0.00 86 1016.0
20190422063913 68 160 0.0 5.0 0.00 0.00 0.00 86 1015.9
20190422062919 68 135 3.0 6.0 0.00 0.00 0.00 86 1016.1
20190422061913 69 157 2.0 6.0 0.00 0.00 0.00 86 1016.3
20190422060912 68 140 4.0 7.0 0.00 0.00 0.00 86 1016.3
20190422055912 69 201 4.0 4.0 0.00 0.00 0.00 86 1016.3
20190422054912 69 183 4.0 6.0 0.00 0.00 0.00 85 1016.3
20190422053911 69 141 0.0 3.0 0.00 0.00 0.00 85 1016.4
20190422052911 69 161 2.0 7.0 0.00 0.00 0.00 85 1016.2
20190422051911 69 157 3.0 7.0 0.00 0.00 0.00 85 1016.1
20190422050910 69 126 3.0 3.0 0.00 0.00 0.00 85 1016.2
20190422045910 69 209 3.0 5.0 0.00 0.00 0.00 85 1016.2
20190422044910 69 149 3.0 6.0 0.00 0.00 0.00 84 1016.0
20190422043910 69 187 3.0 7.0 0.00 0.00 0.00 84 1016.0
20190422042909 69 197 3.0 5.0 0.00 0.00 0.00 84 1016.0
20190422041909 69 179 0.0 2.0 0.00 0.00 0.00 84 1015.9
20190422040909 69 178 0.0 5.0 0.00 0.00 0.00 83 1015.9
20190422035908 69 128 0.0 2.0 0.00 0.00 0.00 83 1015.8
20190422034909 69 180 3.0 4.0 0.00 0.00 0.00 82 1015.6
20190422033908 69 150 0.0 2.0 0.00 0.00 0.00 81 1015.4
20190422032908 69 239 0.0 7.0 0.00 0.00 0.00 81 1015.5
20190422031908 69 173 3.0 5.0 0.00 0.00 0.00 79 1015.3
20190422030907 70 192 0.0 4.0 0.00 0.00 0.00 77 1015.2
20190422025908 70 130 0.0 0.0 0.00 0.00 0.00 75 1015.0
20190422024907 70 211 1.0 1.0 0.00 0.00 0.00 74 1014.8
20190422023907 71 196 3.0 7.0 0.00 0.00 0.00 72 1014.7
20190422022907 71 153 3.0 6.0 0.00 0.00 0.00 71 1014.7
20190422021906 71 188 1.0 3.0 0.00 0.00 0.00 71 1014.4
20190422020906 72 171 0.0 2.0 0.00 0.00 0.00 69 1014.4
20190422015936 72 194 1.0 7.0 0.00 0.00 0.00 68 1014.3
20190422014936 73 157 5.0 6.0 0.00 0.00 0.00 67 1014.1
20190422013935 73 155 0.0 9.0 0.00 0.00 0.00 66 1013.9
20190422012935 74 172 2.0 4.0 0.00 0.00 0.00 65 1013.9
20190422011934 74 137 4.0 9.0 0.00 0.00 0.00 64 1013.8
20190422010934 75 132 0.0 4.0 0.00 0.00 0.00 64 1013.7
20190422005934 75 144 1.0 9.0 0.00 0.00 0.00 64 1013.5
20190422004934 76 195 1.0 4.0 0.00 0.00 0.00 63 1013.5
20190422003934 77 246 1.0 11.0 0.00 0.00 0.00 62 1013.3
20190422002933 78 117 6.0 6.0 0.00 0.00 0.00 62 1013.2
20190422001933 79 126 3.0 4.0 0.00 0.00 0.00 61 1013.1
20190422000932 79 155 4.0 12.0 0.00 0.00 0.00 60 1013.0
20190421235933 80 174 2.0 6.0 0.00 0.00 0.00 55 1012.8
20190421234932 81 162 8.0 8.0 0.00 0.00 0.00 56 1012.8
20190421233931 81 192 0.0 8.0 0.00 0.00 0.00 55 1013.0
20190421232933 82 166 4.0 12.0 0.00 0.00 0.00 53 1012.9
20190421231931 82 184 9.0 11.0 0.00 0.00 0.00 53 1012.9
20190421230931 82 169 4.0 9.0 0.00 0.00 0.00 52 1013.0
20190421225931 83 121 0.0 10.0 0.00 0.00 0.00 51 1013.0
20190421224930 83 218 0.0 9.0 0.00 0.00 0.00 49 1012.9
20190421223930 83 264 2.0 9.0 0.00 0.00 0.00 48 1013.0
20190421222930 83 134 9.0 10.0 0.00 0.00 0.00 49 1012.8
20190421221930 83 102 8.0 8.0 0.00 0.00 0.00 49 1012.8
20190421220929 83 135 2.0 11.0 0.00 0.00 0.00 49 1012.8
20190421214929 84 149 3.0 10.0 0.00 0.00 0.00 49 1012.8
20190421213929 84 176 4.0 5.0 0.00 0.00 0.00 51 1012.9
20190421212928 84 215 3.0 8.0 0.00 0.00 0.00 51 1013.0
20190421211928 84 121 7.0 7.0 0.00 0.00 0.00 51 1013.1
20190421210928 84 204 2.0 8.0 0.00 0.00 0.00 52 1013.2
20190421205927 84 141 8.0 9.0 0.00 0.00 0.00 51 1013.3
20190421204927 84 248 7.0 10.0 0.00 0.00 0.00 52 1013.4
20190421203927 83 149 4.0 9.0 0.00 0.00 0.00 51 1013.4
20190421202927 84 238 2.0 11.0 0.00 0.00 0.00 52 1013.6
20190421201926 83 127 2.0 5.0 0.00 0.00 0.00 52 1013.7
20190421200926 84 111 11.0 11.0 0.00 0.00 0.00 53 1014.0
20190421195926 83 245 7.0 11.0 0.00 0.00 0.00 53 1014.0
20190421194925 83 207 4.0 9.0 0.00 0.00 0.00 53 1014.0
20190421193925 83 189 5.0 5.0 0.00 0.00 0.00 53 1014.2
20190421192925 83 131 2.0 6.0 0.00 0.00 0.00 55 1014.4
20190421191925 83 225 2.0 12.0 0.00 0.00 0.00 55 1014.6
20190421190925 83 159 0.0 10.0 0.00 0.00 0.00 54 1014.4
20190421185924 82 132 3.0 11.0 0.00 0.00 0.00 54 1014.5
20190421184924 82 222 8.0 13.0 0.00 0.00 0.00 55 1014.7
20190421183924 81 148 6.0 6.0 0.00 0.00 0.00 55 1014.7
20190421182923 81 118 4.0 7.0 0.00 0.00 0.00 57 1014.7
20190421181923 80 209 5.0 11.0 0.00 0.00 0.00 57 1014.9
20190421180923 80 192 4.0 13.0 0.00 0.00 0.00 57 1014.9
20190421175923 80 113 3.0 9.0 0.00 0.00 0.00 59 1014.9
20190421174922 79 164 4.0 9.0 0.00 0.00 0.00 62 1015.0
20190421173922 78 127 9.0 11.0 0.00 0.00 0.00 61 1015.0
20190421172922 78 171 7.0 13.0 0.00 0.00 0.00 62 1015.2
20190421171921 77 261 6.0 10.0 0.00 0.00 0.00 63 1015.2
20190421170921 76 134 0.0 12.0 0.00 0.00 0.00 63 1015.3
20190421165921 76 128 3.0 15.0 0.00 0.00 0.00 63 1015.4
20190421164921 75 142 5.0 19.0 0.00 0.00 0.00 66 1015.7
20190421163921 74 185 6.0 8.0 0.00 0.00 0.00 72 1015.5